User: anonymous   Login
Location: Unspecified
(0.0000°N, 0.0000°E)
Time: 00:38:04
(UTC+00:00)
Language:

BIROS - Orbit

View from above orbital plane
View from above orbital plane
View from above satellite
View from above satellite

Ground track
Ground track

The orbit data is extracted from the following two-line orbital elements,

1 41604U 16040F   17346.74465520  .00000626  00000-0  31181-4 0  9992
2 41604  97.4404  47.2074 0013228 156.8468 203.3366 15.21152687 81823
Epoch (UTC): 12 December 2017 17:52:18
Eccentricity: 0.0013228
inclination: 97.4404°
perigee height: 493 km
apogee height: 511 km
right ascension of ascending node: 47.2074°
argument of perigee: 156.8468°
revolutions per day: 15.21152687
mean anomaly at epoch: 203.3366°
orbit number at epoch: 8182

The dashed part of the orbit path shows where the satellite is in the earth's shadow,  

DLR